Location: Cran-Gévrier
(45.9039°N, 6.1012°E)
Time: 11:50:04
(UTC+00:00)

Cosmos 1844 Rocket - Pass Details

Date: 09 February 2023
Orbit: 826 x 843 km, 71.0° (Epoch: 20 March)

Event Time Altitude Azimuth Distance (km) Brightness Sun altitude
Rises 17:40:53 0° 327° (NNW) 3,373 6.1 -8.9°
Reaches altitude 10° 17:43:27 10° 320° (NW) 2,436 5.5 -9.3°
Maximum altitude 17:48:35 40° 253° (WSW) 1,211 4.3 -10.2°
Drops below altitude 10° 17:53:43 10° 186° (S) 2,423 5.3 -11.1°
Sets 17:56:16 0° 179° (S) 3,353 5.9 -11.5°
